| time (UTC) | temp F | wind direction | speed MPH | gust MPH | rain 1hr in | rain 24hr in | rain mn in | humidity % | barometer mb |
| 20260902201543 | 95 | 354 | 2.0 | 9.0 | 0.00 | 0.00 | 0.00 | 51 | 1014.7 |
| 20260902200028 | 94 | 6 | 3.0 | 9.0 | 0.00 | 0.00 | 0.00 | 50 | 1015.0 |
| 20260902194532 | 95 | 107 | 2.0 | 6.0 | 0.00 | 0.00 | 0.00 | 47 | 1015.1 |
| 20260902193038 | 93 | 98 | 0.0 | 3.0 | 0.00 | 0.00 | 0.00 | 47 | 1015.3 |
| 20260902191522 | 93 | 204 | 0.0 | 7.0 | 0.00 | 0.00 | 0.00 | 47 | 1015.6 |
| 20260902190019 | 93 | 87 | 2.0 | 7.0 | 0.00 | 0.00 | 0.00 | 46 | 1015.8 |
| 20260902184520 | 93 | 345 | 1.0 | 8.0 | 0.00 | 0.00 | 0.00 | 48 | 1015.9 |
| 20260902183025 | 93 | 315 | 1.0 | 6.0 | 0.00 | 0.00 | 0.00 | 49 | 1016.2 |
| 20260902181516 | 93 | 17 | 2.0 | 7.0 | 0.00 | 0.00 | 0.00 | 47 | 1016.4 |
| 20260902180014 | 93 | 244 | 2.0 | 7.0 | 0.00 | 0.00 | 0.00 | 49 | 1016.4 |
| 20260902174512 | 92 | 75 | 4.0 | 9.0 | 0.00 | 0.00 | 0.00 | 51 | 1016.6 |
| 20260902173015 | 92 | 38 | 4.0 | 8.0 | 0.00 | 0.00 | 0.00 | 54 | 1016.8 |
| 20260902171510 | 91 | 71 | 3.0 | 9.0 | 0.00 | 0.00 | 0.00 | 54 | 1017.1 |
| 20260902170006 | 91 | 110 | 4.0 | 8.0 | 0.00 | 0.00 | 0.00 | 54 | 1017.1 |
| 20260902164505 | 91 | 96 | 2.0 | 7.0 | 0.00 | 0.00 | 0.00 | 58 | 1017.4 |
| 20260902163004 | 90 | 47 | 3.0 | 6.0 | 0.00 | 0.00 | 0.00 | 57 | 1017.5 |
| 20260902161501 | 89 | 40 | 1.0 | 5.0 | 0.00 | 0.00 | 0.00 | 62 | 1017.7 |
| 20260902160116 | 88 | 93 | 1.0 | 3.0 | 0.00 | 0.00 | 0.00 | 64 | 1017.8 |
| 20260902154559 | 88 | 58 | 3.0 | 5.0 | 0.00 | 0.00 | 0.00 | 64 | 1017.8 |
| 20260902153058 | 87 | 58 | 3.0 | 5.0 | 0.00 | 0.00 | 0.00 | 63 | 1018.1 |
| 20260902151554 | 85 | 117 | 0.0 | 5.0 | 0.00 | 0.00 | 0.00 | 70 | 1018.1 |
| 20260902150052 | 85 | 353 | 1.0 | 5.0 | 0.00 | 0.00 | 0.00 | 70 | 1018.1 |
| 20260902144551 | 84 | 31 | 1.0 | 4.0 | 0.00 | 0.00 | 0.00 | 71 | 1017.9 |
| 20260902143049 | 84 | 79 | 1.0 | 4.0 | 0.00 | 0.00 | 0.00 | 73 | 1018.0 |
| 20260902141545 | 82 | 62 | 2.0 | 4.0 | 0.00 | 0.00 | 0.00 | 75 | 1018.0 |
| 20260902140042 | 81 | 110 | 2.0 | 4.0 | 0.00 | 0.00 | 0.00 | 76 | 1017.8 |
| 20260902134550 | 81 | 73 | 1.0 | 5.0 | 0.00 | 0.00 | 0.00 | 77 | 1017.8 |
| 20260902133041 | 80 | 56 | 2.0 | 6.0 | 0.00 | 0.00 | 0.00 | 79 | 1017.9 |
| 20260902131543 | 79 | 29 | 2.0 | 6.0 | 0.00 | 0.00 | 0.00 | 81 | 1018.0 |
| 20260902130035 | 77 | 46 | 2.0 | 4.0 | 0.00 | 0.00 | 0.00 | 86 | 1018.0 |
| 20260902124530 | 75 | 54 | 1.0 | 4.0 | 0.00 | 0.00 | 0.00 | 91 | 1017.9 |
| 20260902123032 | 73 | 241 | 0.0 | 1.0 | 0.00 | 0.00 | 0.00 | 94 | 1017.9 |
| 20260902121524 | 72 | 241 | 0.0 | 1.0 | 0.00 | 0.00 | 0.00 | 95 | 1017.9 |
| 20260902120023 | 71 | 241 | 0.0 | 1.0 | 0.00 | 0.00 | 0.00 | 96 | 1017.6 |
| 20260902114522 | 70 | 241 | 0.0 | 0.0 | 0.00 | 0.00 | 0.00 | 96 | 1017.5 |
| 20260902113020 | 69 | 241 | 0.0 | 0.0 | 0.00 | 0.00 | 0.00 | 95 | 1017.3 |
| 20260902111519 | 70 | 241 | 0.0 | 0.0 | 0.00 | 0.00 | 0.00 | 96 | 1017.2 |
| 20260902110032 | 70 | 241 | 0.0 | 0.0 | 0.00 | 0.00 | 0.00 | 96 | 1017.1 |
| 20260902104518 | 70 | 241 | 0.0 | 0.0 | 0.00 | 0.00 | 0.00 | 96 | 1017.0 |
| 20260902103016 | 70 | 241 | 0.0 | 2.0 | 0.00 | 0.00 | 0.00 | 95 | 1016.7 |
| 20260902101514 | 70 | 241 | 1.0 | 2.0 | 0.00 | 0.00 | 0.00 | 95 | 1016.6 |
| 20260902100016 | 70 | 241 | 0.0 | 0.0 | 0.00 | 0.00 | 0.00 | 95 | 1016.5 |
| 20260902094511 | 70 | 241 | 0.0 | 0.0 | 0.00 | 0.00 | 0.00 | 95 | 1016.4 |
| 20260902093019 | 71 | 241 | 0.0 | 0.0 | 0.00 | 0.00 | 0.00 | 95 | 1016.3 |
| 20260902091510 | 71 | 241 | 0.0 | 2.0 | 0.00 | 0.00 | 0.00 | 95 | 1016.3 |
| 20260902090009 | 71 | 241 | 0.0 | 2.0 | 0.00 | 0.00 | 0.00 | 95 | 1016.3 |
| 20260902084508 | 71 | 241 | 0.0 | 3.0 | 0.00 | 0.00 | 0.00 | 94 | 1016.2 |
| 20260902083008 | 71 | 295 | 0.0 | 2.0 | 0.00 | 0.00 | 0.00 | 94 | 1015.9 |
| 20260902081507 | 71 | 295 | 0.0 | 0.0 | 0.00 | 0.00 | 0.00 | 95 | 1015.8 |
| 20260902080006 | 71 | 295 | 0.0 | 0.0 | 0.00 | 0.00 | 0.00 | 95 | 1015.8 |
| 20260902074505 | 71 | 295 | 0.0 | 0.0 | 0.00 | 0.00 | 0.00 | 95 | 1015.8 |
| 20260902073004 | 71 | 295 | 0.0 | 0.0 | 0.00 | 0.00 | 0.00 | 94 | 1015.8 |
| 20260902071502 | 72 | 295 | 0.0 | 0.0 | 0.00 | 0.00 | 0.00 | 94 | 1015.8 |
| 20260902070002 | 71 | 295 | 0.0 | 0.0 | 0.00 | 0.00 | 0.00 | 94 | 1016.0 |
| 20260902064501 | 72 | 295 | 0.0 | 0.0 | 0.00 | 0.00 | 0.00 | 94 | 1015.9 |
| 20260902063100 | 72 | 295 | 0.0 | 0.0 | 0.00 | 0.00 | 0.00 | 94 | 1016.1 |
| 20260902054611 | 72 | 295 | 0.0 | 0.0 | 0.00 | 0.00 | 0.00 | 93 | 1016.3 |
| 20260902053104 | 73 | 295 | 0.0 | 0.0 | 0.00 | 0.00 | 0.00 | 93 | 1016.3 |
| 20260902051552 | 73 | 295 | 0.0 | 0.0 | 0.00 | 0.00 | 0.00 | 92 | 1016.1 |
| 20260902050056 | 73 | 295 | 0.0 | 0.0 | 0.00 | 0.00 | 0.00 | 92 | 1016.1 |
| 20260902044552 | 73 | 295 | 1.0 | 2.0 | 0.00 | 0.00 | 0.00 | 92 | 1015.9 |
| 20260902043048 | 74 | 295 | 0.0 | 2.0 | 0.00 | 0.00 | 0.00 | 91 | 1016.0 |
| 20260902041547 | 74 | 295 | 0.0 | 1.0 | 0.00 | 0.00 | 0.00 | 91 | 1016.0 |
| 20260902040048 | 74 | 295 | 0.0 | 2.0 | 0.00 | 0.00 | 0.00 | 90 | 1016.0 |
| 20260902034541 | 74 | 295 | 0.0 | 0.0 | 0.00 | 0.00 | 0.00 | 90 | 1015.8 |
| 20260902033041 | 75 | 295 | 0.0 | 1.0 | 0.00 | 0.00 | 0.00 | 89 | 1015.7 |
| 20260902031544 | 76 | 295 | 1.0 | 2.0 | 0.00 | 0.00 | 0.00 | 87 | 1015.8 |
| 20260902030040 | 75 | 295 | 1.0 | 2.0 | 0.00 | 0.00 | 0.00 | 88 | 1015.9 |
| 20260902024541 | 76 | 295 | 0.0 | 0.0 | 0.00 | 0.00 | 0.00 | 87 | 1015.8 |
| 20260902023042 | 77 | 295 | 0.0 | 2.0 | 0.00 | 0.00 | 0.00 | 85 | 1015.8 |
| 20260902021537 | 77 | 295 | 1.0 | 2.0 | 0.00 | 0.00 | 0.00 | 85 | 1015.6 |
| 20260902020039 | 77 | 295 | 0.0 | 1.0 | 0.00 | 0.00 | 0.00 | 85 | 1015.7 |
| 20260902014537 | 78 | 295 | 0.0 | 2.0 | 0.00 | 0.00 | 0.00 | 84 | 1015.7 |
| 20260902013041 | 78 | 295 | 0.0 | 0.0 | 0.00 | 0.00 | 0.00 | 85 | 1015.6 |
| 20260902011535 | 79 | 295 | 0.0 | 2.0 | 0.00 | 0.00 | 0.00 | 81 | 1015.5 |
| 20260902010035 | 80 | 295 | 0.0 | 0.0 | 0.00 | 0.00 | 0.00 | 81 | 1015.4 |
| 20260902004535 | 81 | 295 | 1.0 | 2.0 | 0.00 | 0.00 | 0.00 | 78 | 1015.1 |
| 20260902003038 | 82 | 295 | 0.0 | 0.0 | 0.00 | 0.00 | 0.00 | 76 | 1015.1 |
| 20260902001545 | 83 | 295 | 1.0 | 2.0 | 0.00 | 0.00 | 0.00 | 72 | 1015.2 |
| 20260902000037 | 84 | 55 | 0.0 | 1.0 | 0.00 | 0.00 | 0.00 | 72 | 1015.2 |
| 20260901234533 | 87 | 55 | 0.0 | 1.0 | 0.00 | 0.00 | 0.00 | 67 | 1015.2 |
| 20260901233034 | 88 | 55 | 0.0 | 2.0 | 0.00 | 0.00 | 0.00 | 62 | 1015.3 |
| 20260901231531 | 89 | 77 | 1.0 | 4.0 | 0.00 | 0.00 | 0.00 | 58 | 1015.2 |
| 20260901230030 | 90 | 71 | 2.0 | 4.0 | 0.00 | 0.00 | 0.00 | 56 | 1015.2 |
| 20260901224529 | 90 | 50 | 2.0 | 4.0 | 0.00 | 0.00 | 0.00 | 56 | 1015.2 |
| 20260901223028 | 91 | 275 | 0.0 | 3.0 | 0.00 | 0.00 | 0.00 | 52 | 1015.2 |
| 20260901221528 | 92 | 43 | 1.0 | 5.0 | 0.00 | 0.00 | 0.00 | 50 | 1015.2 |
| 20260901220026 | 92 | 22 | 3.0 | 5.0 | 0.00 | 0.00 | 0.00 | 50 | 1015.1 |
| 20260901214525 | 92 | 281 | 1.0 | 4.0 | 0.00 | 0.00 | 0.00 | 53 | 1015.2 |
| 20260901213027 | 91 | 88 | 3.0 | 7.0 | 0.00 | 0.00 | 0.00 | 52 | 1015.2 |
| 20260901211524 | 90 | 256 | 0.0 | 2.0 | 0.00 | 0.00 | 0.00 | 59 | 1015.4 |
| 20260901210022 | 92 | 301 | 1.0 | 3.0 | 0.00 | 0.00 | 0.00 | 51 | 1015.4 |
| 20260901204522 | 91 | 89 | 2.0 | 7.0 | 0.00 | 0.00 | 0.00 | 53 | 1015.5 |
| 20260901203025 | 93 | 9 | 3.0 | 7.0 | 0.00 | 0.00 | 0.00 | 51 | 1015.6 |